Regional Weather Roundup
Issued by NWS Cleveland, OH

Home | Current Version | Previous Version | Graphics & Text | Print | Product List | Glossary On
Versions: 1 2 3 4 5 6 7 8 9 10 11 12 13 14 15 16 17 18 19 20 21 22 23 24 25 26 27 28 29 30 31 32 33 34 35 36 37 38 39 40 41 42 43 44 45 46 47 48 49 50
000
ASUS41 KCLE 221312
RWRCLE
OHIO REGIONAL WEATHER ROUNDUP
NATIONAL WEATHER SERVICE WILMINGTON, OH
900 AM EDT SUN APR 22 2018

NOTE: "FAIR" INDICATES FEW OR NO CLOUDS BELOW 12,000 FEET WITH NO
SIGNIFICANT WEATHER AND/OR OBSTRUCTIONS TO VISIBILITY.

OHZ001>008-015>018-024>027-034-035-043-044-221400-
   NORTHWEST OHIO

CITY           SKY/WX    TMP DP  RH WIND       PRES   REMARKS
DEFIANCE       FAIR      44  28  53 E5        30.39R
FINDLAY        FAIR      45  27  49 NE9       30.36S
TOLEDO EXPRESS FAIR      47  28  47 E10       30.39S
TOLEDO EXEC    FAIR      46  32  58 NE10      30.40S
LIMA           FAIR      42  30  62 NE5       30.36R
$$

OHZ009>014-019>023-028>033-038-089-221400-
   NORTHEAST OHIO

CITY           SKY/WX    TMP DP  RH WIND       PRES   REMARKS
CLE-HOPKINS    PTSUNNY   48  26  42 NE10      30.41F
CLE-LAKEFRONT  FAIR      42  32  67 NE9       30.39F
CUY CO. ARPT   NOT AVBL
LORAIN-ELYRIA  FAIR      45  28  51 NE14      30.39S
ASHTABULA      FAIR      45  27  49 E6        30.43R
AKRON-CANTON   PTSUNNY   50  25  37 E12       30.36S
WOOSTER        FAIR      47  28  47 E9        30.36S
MANSFIELD      FAIR      47  26  44 E8        30.35S
YOUNGSTOWN     FAIR      47  22  37 E14       30.38S
$$

OHZ042-051>053-060>062-070>072-077>081-221400-
  SOUTHWEST OHIO

CITY           SKY/WX    TMP DP  RH WIND       PRES   REMARKS
CINC-COVINGTON CLOUDY    50  29  44 NE8       30.28F
CINC-LUNKEN    FAIR      49  36  61 NE8       30.30F
HAMILTON       FAIR      48  31  51 E5        30.32S
DAYTON         CLOUDY    46  32  58 NE7       30.34R
WRIGHT-PAT AFB FAIR      47  30  53 NE8       30.33S
DAYTON GENERAL FAIR      48  30  49 E10       30.30S
WILMINGTON     FAIR      46  34  62 NE8       30.31S
$$

OHZ036-037-039>041-045>050-054>059-063>069-073>076-082>088-221400-
  CENTRAL AND SOUTHEAST OHIO

CITY           SKY/WX    TMP DP  RH WIND       PRES   REMARKS
COLUMBUS       CLOUDY    49  30  48 NE5       30.34R
OSU AIRPORT    FAIR      47  32  56 NE3       30.34R
BOLTON FIELD   NOT AVBL
RICKENBACK AFB FAIR      47  33  58 NE3       30.33S
NEWARK         FAIR      47  31  53 NE5       30.33R
MARION         FAIR      46  30  53 NE9       30.35R
LANCASTER      FAIR      48  34  58 N3        30.33R
ZANESVILLE     NOT AVBL
NEW PHILLY     FAIR      49  27  42 E3        30.35S
$$



USA.gov is the U.S. government's official web portal to all federal, state and local government web resources and services.